Helicity
14 15 3 0 27 17 17 16 20 21 48 87 51 52 58 45 57 64 58 17 165 163 157 193 174 154 108 83 70 116 94 112 153 231 260 232 245 225 178 205 224 213 193 215
-1 33 -11 42 35 27 19 26 27 49 60 60 48 54 45 52 48 42 57 187 294 182 214 172 185 177 150 119 77 71 101 87 153 208 157 155 180 224 217 248 257 254 251 260
-14 77 49 31 25 14 11 26 40 54 56 34 30 74 21 168 186 216 205 322 238 187 177 177 231 180 94 77 75 84 76 91 159 230 254 250 276 322 317 328 378 330 302 279
2 56 27 20 26 48 30 126 95 58 62 90 100 82 58 57 63 188 263 149 155 125 179 148 103 68 69 111 99 72 67 70 115 199 218 207 225 340 517 584 659 634 475 502
103 49 40 42 27 76 54 96 75 54 68 78 93 157 89 122 132 170 280 126 79 158 143 137 62 81 117 89 79 78 57 59 63 80 151 247 330 386 496 622 610 520 490 486
15 59 76 40 49 65 42 48 44 41 48 109 21 156 97 96 120 223 318 280 190 136 94 71 112 108 101 116 80 52 39 61 48 65 106 132 233 346 445 454 430 359 337 294
47 60 84 81 14 8 59 36 89 123 133 145 64 260 144 62 212 298 372 318 187 188 154 123 120 110 143 126 66 37 35 49 67 94 87 113 122 127 200 266 228 247 272 291
47 54 87 152 31 29 55 107 112 139 176 159 89 251 161 248 295 278 212 247 221 142 110 113 113 104 113 114 98 82 71 83 144 151 116 109 106 158 141 138 166 199 209 219
105 93 146 168 127 113 68 116 44 85 89 133 150 109 76 258 264 245 218 231 213 142 100 94 76 61 80 120 129 168 111 103 134 155 115 107 106 123 174 139 128 170 240 275
114 83 69 131 252 141 99 30 160 151 213 165 128 143 92 159 116 143 215 214 121 119 70 55 47 74 110 114 89 184 107 51 74 102 105 104 124 145 102 180 212 221 215 201
89 138 96 150 167 48 105 131 118 121 188 192 155 201 188 321 264 314 273 170 97 56 101 133 142 131 107 95 105 89 121 81 75 67 88 105 144 188 113 99 102 126 228 249
168 176 137 69 71 92 158 113 125 212 202 233 233 262 174 203 248 258 195 93 102 115 120 81 86 116 100 127 119 78 105 96 109 68 48 94 196 155 88 78 168 214 243 214
153 210 153 133 49 36 115 93 120 161 207 258 332 482 238 316 161 62 110 92 91 98 118 94 94 108 121 104 123 102 109 110 76 69 66 87 88 136 97 136 153 183 207 209
327 272 252 204 163 213 251 226 192 182 299 313 403 286 194 123 144 85 76 83 100 103 85 72 80 73 135 120 98 78 80 72 62 58 53 72 90 104 120 127 145 194 190 173
424 353 189 123 108 185 205 206 276 348 323 404 331 309 237 173 50 56 86 91 81 74 69 56 74 86 104 102 112 79 89 36 41 51 66 71 73 83 170 195 158 194 207 254
438 360 189 122 140 157 208 237 288 277 268 272 223 163 78 28 38 69 85 116 85 94 52 79 45 100 126 75 90 87 63 64 68 60 53 46 71 89 114 167 216 189 217 214
385 388 386 186 184 171 262 266 188 160 137 129 168 98 32 73 87 114 146 112 78 81 109 146 89 97 110 78 97 73 50 47 60 52 63 57 68 82 135 161 182 202 240 250
452 350 392 325 344 350 268 166 258 161 72 48 75 67 73 97 159 123 119 47 208 233 172 105 88 81 36 88 60 59 58 58 54 51 69 81 73 67 105 151 175 168 224 220
401 414 439 453 346 256 320 264 178 213 140 71 87 115 161 173 106 119 54 235 199 117 81 108 128 25 50 64 68 37 37 65 54 51 95 106 80 60 72 108 157 174 259 219
411 331 428 501 537 475 350 399 237 214 197 79 165 202 158 139 174 131 171 128 93 96 49 88 57 105 7 41 66 34 56 33 37 93 119 81 65 40 72 118 132 171 236 263
348 442 344 364 506 469 233 191 194 258 204 272 261 212 162 185 146 117 123 67 51 41 37 48 57 110 9 52 73 49 24 32 43 58 91 87 57 51 66 103 132 158 196 232
343 440 487 363 428 465 207 254 246 199 298 225 202 157 113 125 97 83 64 51 48 70 62 17 65 265 115 47 62 53 34 23 32 99 144 99 63 78 53 59 80 104 116 158
373 344 287 322 299 212 209 214 311 235 142 143 104 76 130 116 63 74 74 72 54 90 71 -26 49 159 8 48 35 38 28 9 11 79 160 107 82 77 41 41 67 88 93 106
229 232 312 239 132 144 131 110 145 179 134 105 118 106 92 93 79 54 51 59 58 57 50 22 120 175 -24 70 51 49 42 6 1 11 87 81 80 99 100 85 74 85 92 104
175 175 173 137 91 111 125 119 109 118 114 86 57 51 44 42 37 42 50 40 34 25 22 15 116 121 13 53 41 39 26 19 27 27 29 58 93 63 80 75 63 73 86 108
101 145 131 142 125 140 128 120 112 117 64 40 40 33 38 37 32 27 30 31 45 29 39 3 25 41 -4 33 25 34 29 17 29 34 39 55 73 69 51 50 57 64 71 76
Wind_Speed
36 39 36 45 46 51 51 49 52 48 49 56 54 57 53 52 47 42 39 39 29 34 35 39 40 40 36 33 31 26 26 35 33 35 39 45 45 44 40 40 39 35 33 33
26 35 42 43 43 44 46 53 55 55 46 51 65 63 60 47 38 41 37 28 28 29 32 35 37 38 37 36 33 31 30 33 32 35 40 43 47 46 44 40 41 40 38 37
26 44 44 42 50 53 52 53 60 63 67 61 62 64 50 39 35 32 28 27 28 30 33 36 37 41 40 40 39 36 38 35 31 35 40 45 48 47 42 40 40 41 41 40
34 32 31 31 36 41 50 57 56 66 71 66 70 79 54 49 32 28 32 30 31 33 33 36 40 44 44 44 42 41 38 36 36 38 43 46 49 50 50 45 41 40 41 41
42 39 37 35 44 54 54 62 61 65 61 68 61 61 55 38 36 32 27 25 28 33 34 38 43 44 42 43 44 42 41 42 44 44 43 44 46 43 43 42 42 42 42 43
44 45 44 43 49 48 53 62 56 50 48 60 57 51 55 44 32 18 29 31 33 36 36 42 44 42 42 46 47 47 49 53 52 49 45 44 44 43 44 45 47 48 47 44
63 48 40 39 49 45 43 58 66 66 52 64 54 57 56 52 33 31 33 35 36 42 46 44 45 47 50 52 52 54 55 57 51 47 48 45 43 41 42 42 43 44 43 45
63 64 48 34 39 55 54 49 54 80 78 79 71 71 65 40 34 35 34 33 38 41 44 48 50 55 61 63 64 63 63 59 50 47 48 46 44 41 42 42 39 39 41 45
61 58 45 47 48 44 56 47 52 65 66 79 71 61 47 35 35 35 35 36 41 44 49 55 63 71 79 76 64 63 63 60 51 46 46 44 40 40 39 33 31 37 39 37
53 74 57 65 45 48 51 50 56 52 79 81 72 73 71 38 37 38 44 44 43 51 60 71 82 84 78 79 73 55 58 57 51 43 44 44 42 35 31 32 29 26 27 27
53 61 68 58 56 64 52 55 55 61 67 87 95 76 47 55 48 44 46 47 57 69 86 89 84 79 75 71 63 61 52 51 50 48 47 46 52 26 24 29 31 34 33 16
52 60 73 68 67 62 60 62 60 67 73 69 72 91 65 61 55 56 56 62 80 82 78 81 80 78 76 70 63 63 55 53 53 51 48 44 42 52 46 42 32 31 26 30
46 58 74 72 60 54 62 59 60 66 74 82 82 89 56 46 48 66 82 84 80 79 80 82 81 76 72 65 59 58 56 54 52 44 44 45 41 37 44 35 18 20 24 26
52 62 65 80 75 60 69 66 65 68 81 88 87 90 76 77 83 81 77 81 84 82 80 83 81 71 62 60 53 52 51 47 47 49 48 49 46 46 34 30 22 15 17 18
49 79 69 79 76 74 79 77 72 76 73 80 84 79 76 77 75 77 81 81 78 80 85 88 79 66 57 53 52 49 43 47 48 51 52 52 41 35 27 24 30 25 25 19
53 80 72 91 78 77 88 79 74 71 68 71 76 84 66 63 66 73 72 76 80 87 87 79 69 56 50 48 49 47 48 51 46 47 53 50 40 34 30 25 21 20 24 19
61 68 76 102 78 80 96 81 77 73 65 64 73 68 58 61 63 70 76 81 87 80 77 76 66 51 47 48 48 56 63 61 51 47 46 48 47 37 24 20 20 22 21 21
62 62 65 85 72 99 82 54 52 55 52 54 59 55 55 60 68 69 73 84 72 73 73 70 64 55 46 45 56 59 61 62 52 47 51 51 50 39 30 25 18 21 22 25
46 52 69 79 81 83 69 51 49 49 56 49 56 51 55 61 69 71 65 63 70 76 72 66 63 59 49 51 56 59 63 62 63 59 46 52 48 42 33 28 28 25 25 25
44 45 56 59 78 89 56 43 39 42 69 52 45 48 55 62 73 79 70 70 71 67 67 64 60 71 65 52 52 57 60 65 59 57 52 44 40 38 33 28 26 22 21 24
50 51 63 63 72 68 52 34 35 63 65 43 44 51 60 71 77 81 69 61 61 60 69 64 69 79 54 46 48 53 60 60 56 53 42 37 35 36 31 25 20 17 18 16
48 52 57 58 68 79 33 34 52 47 46 51 57 64 73 76 77 68 64 63 61 62 66 75 77 79 75 44 48 51 57 57 54 46 42 34 30 30 28 22 22 22 18 16
52 44 49 47 52 38 33 37 37 46 62 71 78 79 80 84 74 68 68 62 67 61 72 75 66 72 63 43 47 44 47 48 48 42 36 33 31 33 21 22 18 19 16 14
46 39 48 49 47 45 45 50 63 70 74 72 67 70 67 70 68 68 66 68 68 63 72 70 70 75 59 33 36 40 38 38 40 42 32 24 34 33 25 21 21 18 15 15
39 36 46 57 54 58 61 67 72 69 58 60 61 62 62 64 63 62 65 66 67 71 71 66 71 74 53 34 35 32 32 35 37 37 35 29 23 24 28 28 20 17 21 20
39 47 51 60 50 59 66 65 57 68 65 63 62 61 59 57 58 61 65 68 71 73 69 72 64 63 58 34 37 34 35 36 33 33 31 28 27 22 22 25 25 26 27 22
Wind_Direction
315 316 316 314 318 312 315 317 316 321 321 317 316 314 314 314 313 312 313 315 327 329 335 338 337 334 331 323 316 311 301 301 292 288 290 290 288 288 285 284 283 280 278 273
318 318 315 323 323 322 322 317 317 320 328 323 319 317 315 308 304 310 310 321 325 331 338 343 345 344 341 335 327 319 315 308 297 293 295 295 293 289 285 281 280 278 277 275
332 321 324 324 316 314 318 319 317 317 318 319 317 319 324 337 333 335 334 329 330 332 338 342 344 344 342 339 334 328 321 318 309 304 303 303 301 298 289 284 284 279 278 274
331 337 344 342 335 331 324 325 323 318 318 320 319 314 315 318 317 326 331 334 331 336 344 344 341 339 339 338 337 333 330 325 318 311 304 300 296 293 295 292 291 287 285 280
327 330 331 331 327 323 321 321 321 320 319 319 319 312 314 318 311 308 323 337 338 339 342 340 338 338 339 339 336 334 331 326 321 315 309 303 298 296 295 290 286 286 286 284
317 321 322 324 324 323 321 322 321 317 316 314 324 320 328 325 312 319 329 331 334 332 332 332 335 336 336 334 331 328 324 319 317 315 310 304 298 294 290 285 282 280 278 275
312 312 311 319 322 322 319 325 324 321 317 314 326 319 318 320 319 318 320 324 329 328 327 329 329 327 327 326 324 323 321 319 318 315 314 312 307 301 295 291 287 286 283 278
312 314 319 314 316 319 320 319 316 314 315 313 315 312 325 333 321 316 318 321 324 324 326 325 327 326 322 319 318 318 319 318 315 314 314 313 309 305 302 299 294 291 290 286
314 310 323 311 313 318 322 309 313 309 308 307 311 310 310 320 321 320 316 320 321 322 323 323 323 320 319 319 315 314 318 317 316 314 315 314 312 307 305 301 297 295 295 297
307 306 309 314 314 306 300 310 310 311 311 309 312 314 317 322 316 319 321 319 319 320 319 317 317 317 319 319 320 317 319 317 315 311 312 311 306 303 308 311 303 299 299 296
303 301 302 307 304 309 306 302 300 300 297 301 305 307 328 325 326 325 321 321 319 318 316 315 316 319 321 322 321 321 316 315 314 309 311 314 316 313 315 313 312 298 286 291
306 305 299 299 303 302 301 299 296 293 299 295 298 294 310 312 316 317 316 317 316 316 317 316 319 321 322 323 321 320 316 312 310 309 311 314 313 296 316 303 309 294 288 282
307 302 305 309 306 298 296 298 295 293 296 289 293 295 320 323 319 316 314 315 316 315 315 316 319 320 322 326 327 326 323 319 315 312 310 312 315 308 302 305 309 295 293 278
304 293 293 296 305 309 305 300 295 292 289 295 289 296 297 300 309 312 314 315 315 314 315 317 319 320 323 325 327 327 327 327 323 317 311 309 309 307 301 297 300 303 292 272
295 293 291 292 295 296 297 296 294 293 290 289 297 297 303 307 307 312 314 315 316 316 317 317 319 321 324 326 327 327 330 326 322 317 315 313 314 313 305 296 295 291 285 275
295 295 299 294 296 295 295 293 293 290 288 287 291 292 300 302 308 311 314 316 316 317 318 321 321 322 324 326 329 331 328 322 324 319 314 316 320 314 310 299 274 268 274 267
291 295 298 295 301 299 295 296 291 289 284 284 288 294 303 308 311 313 314 314 314 319 323 327 329 325 324 324 328 323 317 316 320 318 317 317 318 319 315 306 288 275 254 240
291 290 297 299 303 296 302 304 310 301 293 292 294 297 303 308 312 313 317 313 319 322 324 323 320 319 320 324 317 317 320 317 324 320 314 313 314 320 320 313 297 285 263 255
283 290 297 295 293 296 301 310 307 308 303 303 301 304 307 311 312 312 316 326 324 322 317 316 317 316 311 312 312 315 314 320 313 313 322 315 317 318 320 316 309 296 277 261
280 281 288 297 297 299 316 328 322 323 303 307 303 308 311 312 309 312 321 324 325 326 327 317 313 304 295 308 313 315 316 311 318 318 321 325 323 322 320 321 317 306 279 269
276 282 279 285 294 300 304 310 324 306 313 325 318 314 312 310 310 315 320 320 323 324 327 322 305 280 294 309 314 314 315 320 322 322 333 333 331 323 321 328 330 310 289 279
283 286 290 286 292 295 307 313 302 318 323 317 312 311 310 312 314 316 317 318 319 319 323 310 288 273 274 303 309 316 317 322 329 333 329 337 342 329 323 324 318 305 302 296
286 288 289 293 299 309 318 311 321 316 311 309 307 308 310 311 312 313 313 313 313 315 310 294 297 280 276 301 309 321 321 328 340 342 343 341 334 319 343 320 327 318 312 306
285 297 293 297 294 296 305 306 307 309 308 311 314 314 315 314 313 312 313 312 311 310 297 298 292 280 288 312 320 318 328 337 349 355 4 9 325 318 319 333 323 323 312 305
295 295 294 291 295 302 303 305 307 311 317 316 316 315 316 318 317 316 314 312 311 301 290 294 279 278 287 309 308 321 331 332 340 353 8 16 1 340 318 318 330 325 310 301
291 291 291 297 306 305 305 308 315 314 315 316 316 317 318 317 317 318 315 312 309 301 295 284 291 280 279 302 303 312 318 319 338 352 2 6 6 349 333 322 319 314 306 305